GFSFLT2_sfc_rhum_057.txt.gz
RH
74 57 52 48 45 46 50 49 48 62 63 62 63 62 62 62 62 61 59 61 63 65 66 68 70 69 69
55 56 51 48 50 52 50 47 49 56 65 65 64 64 65 64 64 62 61 61 63 63 64 65 64 67 66
60 53 54 56 55 56 57 57 53 61 63 64 65 66 67 64 64 63 62 63 64 64 64 63 61 62 63
63 63 60 59 63 67 62 53 54 50 58 63 66 63 65 65 66 66 67 68 68 67 66 64 62 63 64
70 72 69 64 63 59 62 60 62 61 58 53 51 52 53 60 62 65 67 70 70 68 66 67 68 70 71
80 72 65 65 60 64 72 80 79 51 58 58 52 52 50 50 61 67 68 67 67 67 65 66 68 70 69
71 65 65 60 79 89 79 78 76 61 59 64 52 54 50 46 62 66 66 68 68 68 66 63 65 66 67
61 60 61 67 72 83 72 68 62 56 55 80 54 54 49 49 62 67 69 67 65 65 64 63 62 63 64
62 67 67 65 62 64 78 80 78 62 56 66 64 64 60 58 49 61 63 62 63 65 66 67 68 67 65
59 54 56 57 69 61 74 94 90 84 61 77 70 72 81 55 62 56 53 62 67 69 70 69 70 68 73
55 56 58 60 61 63 70 90 93 92 66 83 89 83 87 81 68 64 63 63 61 68 72 74 75 76 85
66 70 74 77 78 78 79 83 82 93 85 91 96 92 93 89 82 67 70 75 82 86 87 78 78 78 76
79 83 82 84 90 89 88 88 93 91 92 92 95 93 96 94 90 83 84 78 81 87 84 85 86 79 86
80 77 79 86 87 84 91 89 93 86 83 90 93 95 95 90 91 88 82 93 84 85 84 83 77 72 76
84 84 82 84 86 85 90 92 94 92 89 83 81 84 89 94 95 85 84 85 85 87 86 90 84 77 73
86 87 91 92 92 90 88 93 94 90 91 88 88 90 84 80 85 92 87 88 86 87 90 96 90 78 72
92 92 92 92 93 91 90 90 90 87 89 88 93 96 95 90 70 65 97 90 87 86 82 86 91 85 75

GFSFLT2_sfc_rhum_060.txt.gz
RH
97 95 94 86 60 44 46 43 38 50 55 59 60 63 63 63 62 62 61 61 60 60 65 66 66 66 64
94 92 80 70 67 59 50 41 41 48 56 60 64 65 64 65 64 64 63 62 61 60 63 63 60 60 60
74 67 74 73 67 50 45 45 41 50 52 55 58 61 63 65 64 64 64 64 63 63 64 64 64 63 62
75 68 56 51 53 55 51 46 44 38 48 53 58 59 62 64 63 65 66 66 67 67 66 65 65 64 63
65 61 60 51 50 49 50 47 50 51 48 44 42 44 46 50 52 56 57 61 65 67 66 64 64 66 69
71 57 51 48 47 50 58 67 73 48 48 50 45 45 44 42 50 56 62 65 66 67 67 65 63 64 68
58 54 53 50 74 82 70 74 74 56 51 58 46 47 43 38 52 57 61 65 67 68 67 65 63 62 61
54 51 51 52 59 78 72 62 56 50 48 72 50 51 46 45 56 59 61 62 64 65 65 64 63 64 64
59 63 66 67 63 60 72 75 72 60 52 61 59 61 59 58 50 55 58 61 64 65 66 67 68 67 65
52 50 49 48 59 60 66 87 87 83 56 74 70 71 80 56 60 54 52 59 62 64 66 68 68 65 72
47 46 48 50 53 54 60 83 91 90 65 82 85 81 86 82 68 66 65 64 61 67 69 72 73 74 84
55 60 65 71 74 75 76 81 79 89 85 91 94 90 93 89 82 69 72 76 83 88 90 77 75 73 72
70 76 78 82 88 87 94 93 90 90 90 92 94 92 93 93 90 81 83 80 83 88 87 88 87 82 83
70 70 73 81 82 81 87 86 89 86 98 94 93 94 93 88 91 87 82 93 85 86 84 84 79 72 72
76 77 76 78 81 82 85 88 94 89 87 85 88 88 92 95 94 85 84 86 86 87 88 90 84 78 75
80 82 85 87 87 86 89 92 90 84 85 86 86 84 85 81 82 90 87 86 87 88 90 94 89 78 72
87 88 88 88 89 89 88 88 87 83 85 86 92 94 95 90 70 65 90 92 87 86 84 86 90 84 75

GFSFLT2_sfc_rhum_063.txt.gz
RH
97 97 98 97 85 68 63 52 50 53 54 53 56 59 61 64 63 63 62 62 61 60 59 59 57 63 65
98 98 94 92 75 66 57 48 47 46 53 56 60 62 63 64 64 64 63 63 62 62 62 61 60 59 60
90 78 76 75 75 69 58 50 41 48 48 47 51 56 60 63 64 65 65 65 64 64 64 64 63 63 63
76 79 78 71 64 62 63 58 54 38 46 52 54 54 56 56 57 58 60 61 63 64 64 64 64 64 62
80 76 72 66 64 60 62 60 60 60 60 59 59 57 55 53 51 52 53 55 59 62 63 63 62 62 63
86 72 63 59 58 65 80 78 78 65 66 65 59 57 55 54 51 52 55 57 60 62 64 64 64 61 61
69 64 62 62 89 91 80 78 72 66 66 68 60 60 56 45 53 56 58 60 62 63 64 65 65 64 62
64 61 62 61 64 77 81 77 68 63 63 79 64 65 59 57 58 60 60 62 62 63 64 66 66 65 63
54 59 61 63 65 74 84 86 82 73 68 77 78 76 72 69 64 60 57 58 60 63 64 65 65 64 63
64 59 57 56 52 66 82 91 85 90 81 91 90 86 96 82 86 73 67 64 63 63 64 65 64 66 73
61 58 58 62 66 67 71 93 88 89 77 87 97 92 90 89 85 84 77 76 76 76 70 71 71 71 85
66 74 82 86 80 82 80 86 84 91 86 90 97 92 94 90 89 80 79 81 86 90 90 80 76 71 71
84 89 77 80 84 86 84 90 90 89 87 90 96 94 97 95 93 87 86 82 84 89 93 88 88 87 91
84 85 86 80 83 82 87 85 92 85 85 87 93 97 96 93 93 91 84 94 86 87 86 87 84 81 82
78 78 79 79 81 85 86 91 96 92 84 82 85 88 96 96 96 87 87 91 90 90 90 93 88 85 82
82 83 87 86 87 88 88 94 94 88 88 86 85 88 91 87 83 92 88 89 86 86 86 94 89 80 75
93 91 87 86 88 91 86 92 92 85 86 85 89 94 96 92 79 67 83 80 82 86 85 88 94 87 80

GFSFLT2_sfc_rhum_066.txt.gz
RH
99 96 98 96 89 85 79 73 68 58 55 54 54 55 58 61 62 63 63 62 62 61 60 58 57 59 60
99 98 95 92 86 79 65 53 61 53 52 52 54 54 54 58 61 62 62 62 62 61 59 59 59 59 59
98 94 89 82 84 78 80 82 58 50 48 47 48 54 58 59 61 62 62 63 63 63 62 62 62 63 63
82 84 82 86 89 85 80 74 68 48 53 54 56 56 53 53 55 56 57 57 58 59 60 61 61 62 62
94 97 90 82 78 75 75 77 78 74 77 77 75 72 67 64 56 55 55 56 56 58 60 61 60 60 59
98 87 76 71 71 85 94 96 95 81 83 75 78 78 72 72 61 56 55 56 58 60 61 61 62 60 60
83 81 77 77 90 95 88 96 94 81 83 79 78 76 76 56 59 59 60 61 62 63 63 63 63 60 61
78 77 73 73 76 86 90 90 89 84 83 95 85 77 72 79 65 63 63 62 60 60 61 63 62 62 62
49 52 57 59 65 91 96 97 96 91 85 95 93 94 76 74 75 66 59 60 64 66 65 64 62 62 64
76 72 64 70 51 74 94 97 93 95 93 97 98 98 97 97 94 74 84 73 68 68 68 68 66 66 75
80 74 74 77 78 80 81 95 91 88 77 89 99 90 95 92 96 93 81 86 81 80 78 76 74 72 87
77 89 92 95 89 89 89 92 90 95 89 92 97 94 94 93 88 86 85 83 92 95 92 83 80 75 70
97 92 90 87 84 84 91 93 93 92 90 88 96 95 97 95 93 86 84 85 85 94 99 91 91 89 93
96 97 96 84 84 92 92 92 96 92 90 88 93 96 96 95 94 93 89 96 86 87 88 87 86 85 86
86 80 80 82 83 90 94 95 97 92 93 87 88 88 90 94 97 90 88 91 89 89 92 96 91 88 88
90 89 94 95 94 93 94 96 94 92 93 89 88 92 90 89 87 94 91 92 91 88 88 92 89 81 76
95 96 96 96 86 94 93 94 88 89 92 88 92 97 96 93 78 71 87 83 84 88 88 91 90 85 79

GFSFLT2_sfc_rhum_069.txt.gz
RH
98 98 99 97 94 93 86 82 76 70 64 59 55 55 56 58 60 61 61 61 60 60 60 57 56 58 60
100 100 96 93 90 89 77 60 64 58 57 54 53 54 52 53 57 59 61 62 62 59 61 61 60 58 58
97 94 93 89 90 80 75 80 66 63 55 48 49 52 56 58 58 58 57 58 59 60 60 61 61 61 61
84 85 82 83 88 88 81 78 75 52 53 56 54 58 59 58 56 57 56 56 56 57 57 58 59 60 60
89 92 92 87 87 84 81 82 80 78 80 78 75 78 76 69 62 60 60 58 57 57 58 58 59 58 58
98 90 82 79 79 88 95 92 92 81 82 77 78 81 80 79 67 60 58 60 61 60 61 60 60 60 59
86 85 79 79 90 96 86 96 92 84 89 91 84 84 82 65 64 63 62 63 64 63 63 60 59 59 62
80 79 78 79 81 87 91 90 91 88 89 99 91 85 83 84 70 65 62 60 60 63 65 66 62 63 64
52 52 57 58 65 93 96 97 97 92 87 97 96 95 92 91 84 66 66 64 65 68 68 68 66 66 71
79 76 68 68 56 80 94 96 99 98 93 99 99 90 97 97 95 80 88 74 69 68 72 71 71 72 78
80 79 81 88 88 86 85 95 98 88 76 95 99 91 97 94 89 96 90 87 81 82 78 74 75 74 87
80 91 94 95 88 90 88 92 93 94 90 96 98 98 96 92 89 86 90 84 91 94 95 84 78 74 74
98 97 94 96 94 84 91 93 95 94 93 94 97 95 97 95 93 88 89 95 90 93 96 94 94 91 95
97 98 94 83 92 94 96 95 96 93 94 94 93 95 96 95 95 93 87 96 87 87 90 91 89 89 90
91 83 81 86 91 93 94 96 97 94 88 95 90 91 91 92 96 90 89 89 88 90 90 92 88 87 89
92 93 95 96 95 95 97 97 96 93 92 88 92 94 91 88 87 94 89 94 90 92 94 97 91 84 81
97 97 97 97 92 94 95 96 94 92 92 90 95 97 96 93 77 65 88 89 87 90 88 92 94 87 81

GFSFLT2_sfc_rhum_072.txt.gz
RH
98 98 99 98 97 96 95 96 93 82 79 78 71 61 57 57 58 59 59 60 60 60 57 56 55 54 56
100 99 98 97 97 97 87 77 77 72 74 60 57 55 56 54 54 58 59 60 57 58 57 57 58 58 57
99 99 99 95 94 86 82 79 64 64 60 57 52 51 53 56 59 59 58 59 60 60 60 60 60 60 60
93 91 83 84 81 80 80 80 76 54 54 58 57 56 59 61 60 59 59 58 59 59 59 59 59 59 59
92 91 86 84 86 87 85 82 78 80 80 78 77 78 78 70 67 63 62 63 61 60 60 60 59 60 58
95 92 87 87 89 90 96 95 91 84 86 86 84 86 83 83 69 65 62 61 62 63 63 62 62 61 59
90 89 84 82 92 96 87 97 93 86 92 94 87 85 83 69 67 65 65 65 64 62 63 64 64 66 65
84 85 82 83 82 86 90 91 91 88 92 99 93 89 85 85 73 65 61 62 64 65 68 67 65 64 65
62 57 59 59 73 94 97 97 95 92 91 97 96 97 95 93 86 67 65 66 67 69 68 69 70 68 71
80 72 71 73 64 85 95 97 98 97 93 99 99 97 97 95 96 82 82 74 68 68 69 71 70 76 85
79 82 84 91 91 90 86 94 98 94 79 95 98 94 98 95 98 95 95 84 83 82 79 76 74 75 89
84 94 95 96 86 83 86 93 95 96 90 94 98 98 97 93 93 96 93 92 96 96 96 85 81 77 77
98 97 98 97 96 84 90 92 93 93 92 95 97 95 98 96 95 89 92 96 91 96 98 97 95 94 96
97 98 95 89 89 95 98 96 97 94 93 94 98 98 96 94 96 94 86 95 96 92 93 94 91 91 92
90 90 89 91 92 95 95 96 98 95 92 84 90 94 96 97 97 91 88 86 85 91 93 93 89 88 90
94 95 96 96 96 95 96 98 97 95 95 95 91 98 93 92 86 93 91 90 89 92 93 97 89 84 80
97 96 96 96 92 95 95 98 96 96 94 94 98 100 97 95 89 64 88 95 93 90 90 93 93 87 82

GFSFLT2_sfc_rhum_075.txt.gz
RH
98 97 99 98 98 96 96 96 96 88 84 84 85 82 77 68 62 59 60 60 60 59 59 58 55 54 55
100 99 98 97 98 98 92 86 90 84 86 86 86 78 69 60 57 55 58 59 59 59 57 60 58 57 57
99 98 99 99 97 94 93 92 91 84 71 69 62 57 53 54 56 58 60 59 60 61 61 61 61 60 59
95 97 94 97 87 89 94 80 75 55 56 59 60 58 57 59 62 63 62 62 60 60 60 60 60 60 59
91 90 86 82 83 85 82 84 81 84 83 80 78 78 78 71 68 65 63 62 63 63 62 61 61 57 58
98 92 89 90 92 92 96 96 92 86 89 88 88 85 84 84 69 66 65 63 63 64 63 60 60 60 59
91 90 87 87 93 96 88 97 91 87 93 94 90 88 83 71 71 68 66 66 66 64 61 65 66 66 63
84 85 83 83 82 86 91 91 91 89 93 99 94 90 88 87 73 66 63 64 64 65 66 68 67 66 64
67 63 62 65 76 95 84 98 94 91 92 97 97 98 94 92 84 68 65 65 66 67 68 68 67 67 67
80 72 75 82 71 90 96 97 98 97 93 99 99 98 97 95 96 83 82 70 66 66 67 69 70 68 83
80 84 88 91 92 90 85 95 99 97 88 94 99 96 98 98 97 97 97 86 85 83 77 76 75 78 94
88 95 96 97 93 83 83 93 94 96 91 97 98 98 98 93 96 97 97 94 96 96 97 84 81 75 76
98 97 98 98 97 93 89 92 95 94 92 94 97 97 98 95 94 86 86 97 91 97 98 98 95 97 94
98 97 96 89 90 95 98 96 98 96 92 93 97 98 97 97 92 90 86 96 95 92 96 94 94 94 95
91 87 86 92 93 96 97 98 98 99 98 96 89 92 96 97 96 88 86 87 90 86 94 95 91 89 90
95 95 96 96 96 96 97 98 97 98 99 98 98 94 97 90 85 93 89 89 92 93 95 97 90 84 81
96 96 96 96 93 97 97 100 97 98 98 98 100 100 97 95 89 64 97 92 98 92 88 89 92 88 82

GFSFLT2_sfc_rhum_078.txt.gz
RH
97 96 98 97 96 94 95 95 95 90 86 83 82 84 84 79 77 72 70 70 66 61 58 58 57 56 54
99 98 98 97 98 97 91 85 91 86 82 80 82 81 78 73 67 65 62 59 59 58 58 57 57 57 56
99 97 98 98 98 96 94 94 89 84 79 73 71 66 63 57 55 56 58 59 60 60 61 62 61 59 58
94 95 91 93 87 92 91 80 76 55 58 61 62 61 63 60 60 62 64 62 63 60 60 61 60 59 58
98 97 94 91 90 92 87 85 83 85 81 78 77 79 78 71 69 64 62 61 61 62 62 60 58 59 56
99 93 90 92 93 92 96 96 93 86 90 86 90 84 83 84 68 65 63 64 64 63 64 63 58 60 61
89 91 88 88 93 95 88 97 91 86 94 94 90 88 83 72 70 67 66 65 65 65 62 59 63 66 66
83 86 85 85 83 86 91 91 93 90 94 99 95 89 88 85 72 72 65 65 64 64 64 66 67 67 66
68 66 67 66 80 92 95 98 96 90 94 98 97 97 93 90 82 68 64 65 63 64 65 66 68 68 75
79 73 82 83 75 91 97 98 98 96 92 98 99 98 97 94 94 81 80 68 64 65 66 69 70 82 86
80 88 90 92 93 90 85 95 98 95 84 96 98 93 90 98 97 97 95 85 81 85 80 77 74 76 96
88 95 96 97 96 94 83 91 94 95 91 97 98 98 98 94 94 95 96 92 97 98 97 85 81 77 73
97 97 98 98 97 88 91 90 93 93 93 95 97 97 98 95 94 88 83 91 88 97 98 98 97 95 95
98 97 96 93 94 94 98 97 97 96 92 93 96 98 97 95 95 94 86 95 96 90 91 86 96 93 94
98 97 87 91 94 97 98 98 98 99 98 95 92 95 96 94 97 93 92 91 88 85 93 96 92 91 91
98 95 95 96 95 96 97 98 97 97 98 97 98 97 96 90 88 94 94 94 90 89 96 97 92 81 81
98 97 96 96 90 96 98 98 97 98 96 97 100 99 99 96 86 65 96 98 98 96 94 92 93 86 80

GFSFLT2_sfc_rhum_081.txt.gz
RH
91 87 92 93 90 89 88 89 91 86 84 82 80 80 84 83 80 78 77 76 75 74 70 62 58 57 56
94 91 92 90 91 88 85 78 85 84 82 81 81 77 76 74 71 69 67 64 62 60 57 57 56 55 57
94 87 95 95 91 88 84 83 72 75 70 68 66 63 63 67 58 56 56 58 58 60 60 60 60 59 59
82 82 78 73 70 69 66 59 58 49 56 62 61 62 62 61 60 60 63 64 59 62 61 60 60 59 57
73 74 67 62 63 63 59 56 55 58 50 47 48 49 48 55 60 63 62 61 61 61 61 62 58 57 57
77 64 62 61 60 61 64 61 60 58 58 50 57 52 53 53 64 64 62 61 62 64 63 62 62 57 59
59 62 61 62 76 81 68 69 60 59 63 56 55 54 54 52 68 66 66 66 65 65 65 62 58 60 64
58 60 62 63 63 75 71 71 66 62 65 74 60 57 55 54 68 72 68 64 62 63 64 65 66 67 67
65 67 68 63 68 70 74 80 68 61 66 72 69 69 64 60 55 67 66 65 63 62 63 64 66 67 64
56 57 69 70 77 66 77 89 83 79 71 81 74 73 83 62 66 56 53 61 64 65 65 69 71 64 66
58 63 66 69 68 66 70 89 89 85 69 84 90 78 78 78 68 67 64 59 60 65 73 73 71 72 77
65 70 75 78 78 78 76 79 79 91 82 94 92 89 88 84 79 68 69 71 82 88 86 79 78 76 74
74 80 82 84 88 84 85 89 93 91 90 89 90 89 92 90 86 77 82 76 79 86 86 85 85 77 82
76 76 78 84 79 79 85 82 87 83 87 88 89 92 90 85 87 87 77 90 82 82 78 79 76 69 69
80 78 76 77 78 82 87 88 91 88 86 81 81 82 86 93 93 83 82 83 84 85 82 85 83 72 66
80 82 84 85 85 85 88 92 90 86 88 85 86 85 82 78 84 88 82 85 84 84 83 91 89 72 61
87 87 87 87 85 86 84 88 88 86 87 87 91 94 94 91 68 69 93 85 83 82 77 80 87 79 62

GFSFLT2_sfc_rhum_084.txt.gz
RH
86 81 83 85 81 82 83 84 86 84 81 79 79 80 79 78 78 77 76 76 73 71 69 68 68 66 65
87 84 85 80 80 78 74 66 74 78 77 76 75 74 73 73 71 69 67 65 63 62 60 59 58 57 56
85 79 84 82 76 71 66 66 53 53 57 66 67 67 65 66 62 57 57 57 58 60 60 60 60 60 59
73 74 66 63 58 59 56 49 48 40 50 52 55 57 57 61 63 64 66 65 62 58 62 62 61 60 59
69 69 60 53 54 50 49 46 46 47 42 38 40 40 39 44 48 57 59 58 58 60 61 60 61 60 56
64 48 49 48 46 50 56 54 53 49 46 40 44 41 43 44 64 63 61 60 59 59 62 60 59 60 59
45 45 47 51 74 76 59 61 52 47 51 46 43 43 46 41 61 66 66 65 65 64 64 62 61 60 59
48 50 54 56 55 68 61 58 54 50 54 69 48 48 45 44 56 67 75 66 62 61 65 66 66 66 65
65 68 66 63 59 59 69 73 62 51 56 64 61 62 57 53 49 69 66 67 65 64 64 64 65 67 64
49 55 56 67 71 57 66 90 80 78 64 78 72 70 83 58 61 56 53 58 62 65 67 67 68 63 61
47 50 53 57 57 57 62 89 88 85 70 79 87 79 79 76 66 63 61 59 56 62 66 70 71 70 74
53 56 62 68 73 72 71 75 70 89 78 96 90 88 88 85 78 65 66 69 80 88 86 75 74 75 74
63 73 76 80 91 88 85 90 99 92 96 98 88 88 91 90 86 77 79 76 82 88 85 85 84 76 80
65 66 71 82 79 78 84 82 86 82 98 99 94 90 90 86 88 86 79 88 82 83 81 79 71 66 68
71 73 72 75 76 77 83 84 87 85 83 79 80 81 84 90 90 79 77 81 86 83 81 84 80 71 66
73 75 79 80 80 79 82 88 88 82 82 80 80 82 79 77 83 86 78 80 83 81 79 91 85 73 62
81 82 82 81 80 79 81 82 83 80 80 81 86 89 92 88 64 75 88 81 79 78 74 79 85 79 63

GFSFLT2_sfc_rhum_087.txt.gz
RH
91 82 85 83 80 80 82 85 87 80 80 80 79 77 77 76 76 76 76 74 72 71 70 70 70 67 67
90 86 84 78 77 81 74 65 74 68 73 72 71 71 72 72 70 69 67 66 62 61 61 59 58 58 57
92 82 86 85 80 71 67 69 46 50 53 62 67 69 66 66 62 60 60 58 58 62 63 63 62 60 58
79 84 77 73 68 69 70 60 60 41 49 50 50 50 52 56 60 67 67 66 64 58 59 61 60 60 59
85 86 76 68 68 62 65 61 63 62 60 53 56 56 53 44 46 52 56 56 55 56 58 59 58 59 56
87 64 60 60 58 68 77 82 82 66 66 60 57 58 59 61 64 65 62 59 58 57 58 60 54 58 57
57 59 58 66 90 90 76 80 73 67 67 68 58 61 62 48 59 62 63 64 63 63 62 63 59 57 58
61 61 66 64 66 77 74 72 71 65 69 90 67 69 66 64 55 59 69 68 63 62 61 63 63 65 64
69 67 64 64 68 74 90 91 86 68 74 82 83 84 77 73 67 72 66 65 67 66 64 62 64 65 73
67 67 64 75 68 70 87 97 95 91 84 94 90 93 96 80 83 77 75 57 57 62 65 67 67 80 85
58 62 65 69 72 71 77 92 89 89 78 92 88 84 85 88 93 92 84 81 84 84 68 69 69 74 95
64 72 79 86 89 90 85 90 84 91 90 96 97 95 96 86 88 94 94 95 96 92 86 76 73 73 71
82 90 92 97 96 95 94 91 94 91 90 96 97 94 96 95 92 88 86 91 84 91 83 87 92 86 95
86 88 94 95 92 87 91 91 94 90 89 93 96 96 95 92 90 91 82 94 92 94 92 83 78 85 84
88 90 89 91 90 82 83 89 96 90 91 92 90 90 90 90 93 87 89 91 90 85 83 84 83 87 85
89 92 93 94 94 89 91 94 94 92 91 92 94 94 88 84 84 93 92 93 94 82 83 94 91 86 80
92 93 94 94 88 94 94 88 89 83 91 92 96 97 96 95 84 77 96 96 89 84 83 89 91 85 82

GFSFLT2_sfc_rhum_090.txt.gz
RH
96 89 89 86 83 89 86 88 88 79 78 77 77 76 76 76 76 76 75 74 72 70 69 68 68 68 69
95 93 90 82 86 90 81 74 78 68 72 72 71 71 72 72 70 69 68 67 63 62 61 60 59 62 60
96 91 91 94 91 86 83 84 53 55 55 62 67 69 68 66 65 64 62 61 61 65 66 65 63 62 60
91 93 93 85 84 80 83 74 70 49 50 53 51 50 52 55 64 66 66 65 64 59 59 59 60 59 58
94 96 89 81 80 76 80 79 81 76 74 68 65 66 64 60 60 58 56 56 54 54 56 57 58 58 56
96 85 74 77 79 86 88 95 93 82 76 73 66 69 72 86 60 62 63 61 57 56 56 58 54 54 52
69 73 78 86 91 94 88 90 89 80 82 82 72 74 73 59 59 57 60 64 63 64 63 63 58 56 57
78 85 84 79 82 88 83 83 84 79 82 94 88 83 82 80 58 61 66 67 65 64 62 62 60 60 61
69 64 64 64 73 88 96 96 95 83 90 92 94 93 89 85 79 66 66 64 65 65 65 63 60 65 78
79 69 76 76 67 82 95 98 98 97 92 96 97 97 97 92 89 85 84 65 56 57 60 64 66 83 92
73 78 80 82 84 85 90 96 96 98 86 95 98 94 96 95 97 96 89 87 88 88 69 69 68 72 97
75 86 89 95 96 97 92 94 95 94 95 95 98 98 97 92 94 96 97 94 97 98 92 74 73 73 74
93 95 96 98 98 97 97 92 93 92 94 95 98 99 98 97 95 90 83 96 88 96 86 84 86 81 86
95 97 98 99 98 98 97 94 97 97 93 94 95 98 100 99 95 90 84 95 97 94 86 84 80 76 90
94 96 96 97 97 96 96 95 98 98 96 95 94 93 94 95 96 89 87 95 95 93 89 89 83 79 81
95 95 95 95 95 97 96 96 97 97 94 97 97 98 96 89 81 94 95 96 96 92 85 92 90 90 88
92 94 94 94 88 96 96 96 97 97 96 94 96 98 97 93 90 64 97 99 98 98 96 95 92 87 91

GFSFLT2_sfc_rhum_093.txt.gz
RH
96 90 90 88 84 90 86 86 88 79 77 77 78 76 76 77 77 78 78 76 75 72 69 68 67 68 69
96 95 92 84 88 90 85 78 78 71 72 73 71 72 73 73 72 72 71 68 66 64 63 61 62 64 62
97 92 94 96 93 90 87 74 57 55 54 59 61 70 68 67 69 68 68 63 67 69 69 67 66 64 62
93 94 95 90 85 89 80 77 72 53 55 54 54 52 52 60 64 64 66 66 64 61 61 61 61 60 59
94 98 92 81 82 78 80 84 83 83 75 72 69 73 72 63 61 59 55 54 55 54 55 56 58 58 56
98 93 75 75 80 84 88 95 92 83 74 71 73 74 78 85 58 60 62 62 57 55 55 56 60 54 52
71 74 75 83 89 94 88 92 90 81 82 82 82 80 82 64 57 56 59 63 62 64 63 65 58 55 54
76 80 79 83 82 86 85 85 88 84 87 95 93 86 87 84 60 64 66 65 66 65 64 62 62 60 60
71 68 68 70 76 90 97 96 95 87 92 93 96 95 93 92 84 65 66 65 65 64 65 64 62 60 71
75 76 84 76 68 85 95 98 98 98 92 96 98 98 96 92 93 90 88 69 65 58 61 60 64 70 88
78 83 86 84 88 91 91 95 98 99 89 93 99 97 98 97 97 97 92 89 90 88 74 67 66 70 87
78 86 90 96 96 96 92 95 95 93 95 94 98 98 98 96 97 96 97 95 98 98 97 72 68 73 74
88 95 96 95 98 98 98 97 95 93 92 95 96 98 99 98 99 97 90 95 94 98 91 85 93 82 86
95 97 99 99 98 98 98 98 98 97 94 94 94 96 97 98 99 96 96 93 97 97 97 96 81 72 75
95 98 98 98 98 98 97 98 98 98 97 97 94 94 95 95 98 94 88 86 97 97 94 97 96 86 83
91 94 96 97 97 98 98 96 96 98 98 98 98 99 99 93 88 94 90 90 97 97 94 95 91 93 90
92 94 96 95 90 96 95 95 96 97 97 98 99 99 99 97 88 65 96 92 96 96 98 98 95 87 89

GFSFLT2_sfc_rhum_096.txt.gz
RH
96 91 91 90 88 91 88 83 88 78 77 76 77 77 77 77 78 80 78 78 77 74 71 69 68 68 70
97 96 92 87 87 88 86 63 79 73 74 74 73 74 74 74 73 72 70 69 68 67 66 64 65 64 62
98 94 94 96 94 92 85 72 55 56 54 55 67 70 70 73 72 72 67 69 71 72 72 69 68 66 63
94 95 90 95 92 92 86 77 72 55 60 62 61 56 55 66 63 65 66 67 64 64 62 63 63 61 60
95 94 95 93 85 84 81 83 82 79 72 72 70 76 82 72 66 58 54 54 56 55 56 57 58 57 56
99 95 87 78 82 81 87 95 90 81 71 73 76 79 79 82 56 59 60 61 56 54 55 56 59 56 53
91 84 76 76 86 90 84 89 87 81 79 82 87 82 85 69 58 57 57 62 62 64 64 67 60 55 54
72 71 74 81 78 83 83 87 86 87 87 95 95 88 90 86 70 65 66 63 66 65 66 63 63 62 62
69 67 69 71 78 85 95 95 95 88 93 92 96 95 94 94 85 67 66 66 64 63 64 65 63 60 68
81 81 81 76 72 81 92 97 98 98 93 95 98 98 96 92 94 91 88 72 70 62 65 60 61 80 87
76 86 82 84 86 90 88 95 98 99 91 93 99 98 98 97 97 97 91 83 87 87 73 67 65 69 87
78 85 88 93 94 94 91 94 94 93 95 94 98 97 99 98 97 95 97 98 98 96 97 75 68 67 72
86 94 93 95 97 98 97 96 97 96 95 96 96 99 98 98 98 98 95 96 98 98 95 96 93 86 86
90 93 96 98 98 98 98 99 98 97 96 95 96 96 99 96 98 98 98 98 98 98 98 98 94 88 79
90 94 96 98 97 98 98 99 98 98 96 97 97 95 96 95 99 97 98 93 88 97 96 97 98 96 90
92 93 96 97 97 99 98 97 97 98 99 98 98 99 97 94 90 97 95 87 88 98 98 100 99 93 90
92 91 94 96 92 97 97 96 96 97 96 97 99 98 100 99 91 71 97 97 98 100 98 99 97 92 88

GFSFLT2_sfc_rhum_102.txt.gz
RH
97 95 95 94 90 88 85 88 90 79 76 76 76 76 78 79 81 84 83 86 87 86 84 82 78 75 72
98 98 95 92 92 90 68 65 76 71 74 74 74 74 76 76 74 76 76 76 75 74 74 73 73 70 68
99 95 96 94 93 84 71 64 53 62 65 71 71 75 75 75 77 75 77 79 78 77 76 74 72 69 66
96 97 93 93 89 88 78 78 71 57 64 70 74 70 68 67 66 69 71 71 70 70 69 68 68 67 65
98 98 96 95 95 88 81 83 80 75 71 72 70 76 80 76 69 60 59 63 63 63 62 61 60 57 59
99 97 93 91 84 84 90 87 84 80 69 70 71 74 74 74 57 59 60 58 56 56 57 58 61 58 60
94 92 90 83 88 91 86 89 85 81 68 73 78 75 80 72 64 61 58 62 63 62 67 63 61 60 59
87 88 83 87 79 82 82 86 86 83 78 92 88 79 82 82 76 65 60 66 65 69 69 69 68 67 64
67 67 67 73 76 79 89 89 86 80 83 85 92 89 87 87 84 65 62 63 68 68 67 67 65 68 76
92 90 80 76 69 75 87 91 94 92 86 91 93 92 96 91 90 87 86 74 69 63 66 62 67 87 87
88 91 88 89 88 84 83 94 96 96 84 89 98 95 96 96 91 92 91 83 86 86 71 69 66 78 93
86 90 90 91 92 92 88 91 90 92 89 92 96 96 97 97 92 93 97 97 98 96 96 78 68 66 66
89 96 94 95 97 98 96 93 95 96 92 93 95 97 97 97 95 96 96 96 98 98 97 98 96 93 94
94 96 96 99 98 98 97 98 97 98 96 96 93 95 99 98 97 98 96 95 98 99 95 94 88 88 90
93 94 94 97 96 97 97 99 98 98 98 98 96 93 96 95 100 96 96 98 97 97 95 98 94 89 87
94 91 91 95 96 99 98 98 98 98 98 98 99 98 96 93 88 96 99 98 98 94 90 98 96 92 87
95 95 95 95 89 97 98 98 98 97 97 97 98 97 99 96 88 80 94 98 97 90 88 93 94 94 86

GFSFLT2_sfc_rhum_105.txt.gz
RH
94 90 94 91 87 83 85 87 83 77 76 75 76 76 78 81 84 87 89 90 91 86 83 80 77 74 71
96 97 93 91 90 84 73 62 73 74 76 75 75 78 77 78 80 84 84 89 88 87 87 85 81 76 69
96 90 93 93 91 77 68 61 57 68 73 74 76 75 75 76 76 77 80 81 82 82 81 77 73 70 67
93 94 90 91 88 87 77 68 64 55 63 72 76 72 69 66 69 73 74 74 74 75 74 74 74 71 69
97 96 96 96 95 86 79 71 64 54 52 51 56 57 61 65 64 62 65 66 66 66 65 64 64 65 64
98 96 91 91 86 85 82 77 74 59 52 55 54 57 57 61 58 60 59 56 59 58 59 59 59 63 66
94 92 90 87 90 90 81 75 63 64 55 56 53 55 59 61 64 59 60 61 59 60 60 61 61 61 60
85 85 82 77 73 81 74 71 69 69 59 68 61 58 60 63 79 65 58 64 66 69 68 66 63 63 60
66 70 67 76 70 71 78 79 70 64 64 65 74 72 70 66 70 65 66 68 67 67 68 68 67 70 64
71 76 74 70 69 64 75 94 82 81 72 82 80 78 85 75 76 72 70 65 66 65 65 67 75 65 65
73 75 74 71 68 69 70 95 94 89 74 82 90 83 85 84 78 76 73 70 69 71 71 68 73 69 75
70 77 78 78 82 82 79 82 80 96 84 93 93 89 89 85 79 79 79 77 82 84 83 68 69 67 69
69 80 84 87 92 91 90 91 97 95 91 87 91 93 90 86 81 79 83 84 85 87 82 83 81 75 77
71 73 84 89 87 87 90 89 87 88 93 90 90 90 91 85 85 81 81 86 86 86 81 81 74 70 68
78 79 78 84 86 90 90 91 90 89 88 89 86 84 86 90 91 84 79 83 86 87 82 85 80 72 67
81 81 83 86 87 91 92 92 91 88 87 88 93 93 90 82 85 85 84 85 86 86 85 89 85 73 63
91 90 89 88 87 89 91 91 91 89 90 88 92 90 89 80 68 79 88 86 85 85 80 84 84 75 62

GFSFLT2_sfc_rhum_108.txt.gz
RH
83 82 89 87 85 80 86 87 88 78 75 74 75 76 78 81 88 91 92 94 88 88 85 85 82 79 75
92 93 92 89 87 83 76 69 76 82 74 75 78 77 78 79 85 89 94 93 94 91 86 81 78 76 73
94 90 91 92 88 75 71 70 65 74 77 79 76 74 75 77 78 84 86 90 91 93 92 89 85 79 72
90 92 87 89 87 86 82 72 71 58 72 77 72 73 69 68 72 76 76 78 82 83 82 84 85 78 70
96 96 96 96 97 90 88 78 67 66 62 50 55 51 52 54 59 66 69 70 70 70 70 72 72 71 70
99 98 92 90 87 88 86 84 84 66 57 50 44 48 49 52 59 60 60 62 63 63 62 62 65 68 72
93 90 90 87 92 94 85 85 80 65 52 56 49 53 62 63 66 57 59 58 57 59 60 60 62 66 67
79 83 84 83 85 87 83 76 67 56 54 71 57 56 53 53 75 65 60 63 63 66 62 63 64 63 60
68 70 74 75 72 71 82 85 78 66 61 60 63 62 58 58 65 71 62 65 68 69 69 69 70 65 60
66 68 66 71 68 63 76 100 81 77 59 76 76 74 83 67 71 70 67 66 68 69 68 67 71 61 62
57 59 61 62 58 58 62 96 99 92 64 81 96 80 88 82 75 77 73 73 72 73 70 66 72 66 72
59 62 65 71 74 74 74 76 76 97 74 98 100 96 98 86 80 78 79 78 83 88 87 70 71 72 69
62 72 78 85 98 93 92 97 100 95 97 100 100 99 99 97 84 77 86 85 85 90 85 87 83 73 78
63 65 77 89 86 86 93 91 93 92 98 98 100 99 92 86 85 81 80 91 88 87 82 79 70 64 66
73 73 73 80 83 89 93 95 95 91 90 88 83 84 87 94 88 80 75 82 87 88 81 86 80 69 63
79 80 84 87 89 92 94 94 92 88 87 88 89 87 85 80 83 82 80 82 86 86 82 85 83 70 61
94 96 96 95 92 90 90 88 88 87 89 90 90 88 86 75 69 80 91 84 83 82 78 79 80 72 60

GFSFLT2_sfc_rhum_111.txt.gz
RH
90 86 88 87 88 84 87 90 90 83 75 74 77 76 77 78 84 90 93 97 88 81 82 84 89 94 89
93 94 92 90 89 86 74 67 85 88 79 75 77 76 77 78 83 89 93 96 96 94 92 93 88 86 82
95 91 95 95 88 76 74 74 69 74 77 79 75 74 73 75 79 84 90 93 95 96 94 91 86 83 76
79 94 90 92 89 88 84 77 78 59 76 79 73 70 67 66 72 76 81 87 90 91 93 94 94 89 83
88 98 98 98 98 92 92 84 77 74 72 68 71 67 63 55 61 68 71 73 74 79 81 83 84 84 82
97 99 96 94 93 96 92 91 93 76 74 72 59 68 66 71 60 61 63 65 66 67 68 72 76 79 77
94 96 95 92 96 97 92 91 90 76 74 79 66 68 74 69 75 62 60 59 61 63 63 66 74 75 73
75 87 87 86 89 91 91 84 73 67 68 92 74 72 72 76 72 64 60 62 62 63 61 64 69 66 67
70 70 78 81 84 88 92 91 92 81 72 81 82 82 77 77 82 69 62 63 68 68 66 66 66 64 66
78 75 75 77 73 81 93 100 99 94 80 94 93 94 96 84 88 86 88 71 68 69 69 70 72 77 86
70 73 76 76 76 76 82 100 100 99 78 97 99 96 98 96 96 94 91 86 86 83 67 69 73 71 88
74 76 84 92 92 94 92 93 96 99 86 99 99 98 99 97 96 96 96 96 97 98 98 75 69 72 68
86 93 95 99 98 98 98 99 96 97 98 99 98 100 100 100 96 96 97 97 98 98 99 98 97 93 96
88 92 97 98 97 97 98 98 98 99 97 97 98 98 98 98 97 96 96 98 97 97 97 97 90 87 90
92 94 92 96 96 98 98 98 98 98 98 98 92 93 97 97 98 95 95 97 97 97 95 97 96 89 80
94 95 95 96 97 98 98 97 97 97 97 98 97 96 96 94 84 96 94 95 97 96 96 97 96 90 80
97 97 98 98 93 97 96 96 95 96 97 96 96 97 98 96 97 79 95 93 96 96 94 93 96 94 83

GFSFLT2_sfc_rhum_114.txt.gz
RH
97 95 94 95 90 87 88 90 93 85 76 75 77 77 77 78 80 86 90 94 96 83 82 83 82 84 87
97 98 95 93 90 88 75 70 90 88 81 77 76 75 75 77 79 87 91 94 97 98 89 85 86 89 94
96 96 98 96 89 79 77 76 68 73 75 78 76 73 71 73 76 81 89 93 95 96 97 96 95 92 92
85 98 95 96 92 92 88 80 80 60 74 83 74 62 58 62 70 75 84 88 92 94 96 97 95 90 88
93 99 99 99 99 95 96 88 81 79 79 68 78 69 70 72 69 70 73 79 86 90 92 92 94 94 91
97 96 94 96 95 98 96 95 97 81 78 75 60 70 81 88 61 62 65 68 70 80 88 89 91 85 82
92 88 97 94 96 98 96 94 93 80 76 84 67 74 83 82 75 64 61 62 64 65 73 85 83 82 81
82 91 91 88 91 92 94 89 76 73 73 94 74 82 84 90 69 64 60 61 63 61 63 73 79 76 75
73 70 71 80 86 92 94 93 93 83 74 83 82 89 88 89 92 70 61 63 67 64 66 69 68 69 72
85 80 79 80 81 88 96 99 99 95 83 89 96 96 96 93 94 93 93 68 69 69 70 69 70 84 88
86 88 90 87 88 84 90 100 100 99 87 97 99 98 95 98 98 97 94 91 92 88 68 70 72 78 93
85 88 92 96 98 98 97 97 98 98 90 98 99 97 99 98 98 98 98 98 98 98 98 76 69 71 68
95 96 98 99 99 99 99 96 93 99 98 99 99 99 98 99 98 98 99 98 99 99 99 98 96 93 96
95 98 100 100 99 99 99 100 99 99 97 99 100 98 99 99 98 98 98 98 100 99 99 99 94 91 91
97 97 98 99 99 99 99 99 99 99 100 99 96 95 97 97 98 97 98 99 99 98 98 99 98 92 86
97 96 96 97 98 99 99 99 99 98 99 99 99 96 96 90 85 96 97 98 99 98 98 99 97 94 88
95 96 98 97 92 99 99 99 99 98 98 98 99 98 98 95 93 79 94 97 99 100 98 97 98 94 88

GFSFLT2_sfc_rhum_117.txt.gz
RH
98 96 96 96 91 92 87 90 94 87 79 77 77 76 76 76 78 81 88 92 94 97 85 82 82 83 88
98 98 96 94 91 89 77 75 92 86 84 78 77 74 73 73 76 80 88 92 95 98 91 84 86 84 84
96 97 98 96 92 87 80 86 69 74 76 78 76 69 65 66 73 77 85 90 95 96 98 92 93 94 90
92 97 96 96 97 98 93 83 84 64 69 80 78 61 61 65 67 74 77 84 94 96 96 98 95 93 93
94 98 98 98 99 97 98 94 85 83 82 74 72 71 73 74 71 68 71 81 85 94 95 96 97 98 96
98 94 89 94 97 98 98 97 99 83 82 80 64 73 73 82 71 65 66 69 77 87 93 94 95 95 97
90 90 91 94 96 98 97 97 96 84 80 86 70 70 79 81 70 71 63 65 68 75 92 92 92 92 94
91 94 94 92 92 92 95 93 81 77 79 93 76 72 86 89 73 67 62 63 66 65 75 81 84 87 91
74 73 72 72 86 95 97 95 95 88 77 84 84 81 90 90 92 75 62 65 66 61 70 70 79 78 85
83 82 83 85 82 90 96 100 99 96 86 92 90 96 91 94 95 94 94 72 68 69 68 67 75 90 92
89 91 93 90 90 86 94 100 100 99 85 95 100 98 98 98 97 98 96 93 94 93 73 72 72 83 95
89 90 94 97 98 98 98 98 99 99 91 96 99 97 99 99 97 98 98 99 98 98 98 83 72 70 76
95 96 98 99 100 100 97 94 94 97 98 99 99 98 99 98 98 98 99 98 99 99 99 98 97 95 96
94 97 98 100 100 99 100 98 100 99 98 99 99 99 100 100 97 97 97 96 100 99 99 99 93 93 93
97 99 99 99 99 100 99 100 99 100 99 99 97 97 98 97 97 95 96 99 99 98 99 99 96 91 88
96 96 98 99 99 100 99 99 99 99 99 100 99 96 94 88 84 94 98 98 98 98 98 99 96 92 90
96 97 97 98 95 100 100 99 100 99 99 99 99 97 96 88 85 78 94 98 99 100 99 97 97 91 85

GFSFLT2_sfc_rhum_120.txt.gz
RH
98 97 97 97 95 93 90 92 92 88 84 79 78 76 75 74 74 76 81 87 92 93 94 97 82 82 81
98 99 97 97 95 93 85 76 94 82 82 81 76 74 70 68 70 74 79 86 92 94 96 88 85 87 83
99 98 98 98 96 92 90 91 77 74 77 79 77 70 64 66 65 71 76 84 90 94 98 95 92 87 85
96 98 97 98 97 98 97 94 92 72 67 76 80 75 63 66 67 69 74 79 88 93 97 98 93 92 94
96 99 98 98 99 98 99 97 90 92 86 79 72 76 70 71 75 70 67 73 83 93 95 98 99 95 94
99 95 94 92 92 98 99 99 99 85 86 85 68 76 71 77 71 71 65 71 75 90 92 94 97 98 96
92 93 92 88 96 98 98 98 97 87 83 89 72 72 74 68 72 69 63 66 70 79 92 91 95 98 98
92 93 92 91 92 93 95 95 87 80 80 93 79 73 74 79 73 75 64 67 67 73 80 92 94 96 95
77 73 72 72 88 97 98 97 98 93 82 85 85 80 88 90 91 80 75 70 70 70 72 78 83 90 93
81 83 86 86 79 94 98 100 99 97 87 92 97 96 89 93 95 95 95 83 72 72 71 76 79 90 94
90 93 94 91 92 87 95 100 100 100 83 89 99 99 98 98 98 98 97 94 94 92 84 74 75 84 95
90 92 96 97 98 98 99 98 99 100 92 92 97 97 100 99 96 98 98 99 99 98 98 85 78 73 78
94 97 98 99 100 99 95 94 96 96 97 99 99 98 99 97 97 99 98 98 99 99 99 98 97 96 96
96 98 98 99 100 99 100 98 99 99 98 98 98 98 99 99 98 97 99 93 100 99 99 99 95 94 94
96 98 98 99 99 100 100 98 100 99 99 100 99 98 98 96 98 98 98 99 99 99 99 99 98 96 94
96 96 98 98 99 100 100 100 99 99 100 100 99 95 94 89 87 98 98 98 99 98 99 99 98 91 92
95 95 96 98 96 99 98 98 99 99 99 100 99 97 94 91 90 79 95 98 99 100 99 98 98 89 80

GFSFLT2_sfc_rhum_123.txt.gz
RH
98 98 98 97 95 94 92 93 95 86 83 83 79 77 75 72 72 70 73 78 86 91 94 96 93 89 85
99 99 98 97 96 95 91 80 93 86 82 84 79 74 69 68 68 67 71 78 86 92 95 97 90 87 82
100 98 98 98 96 94 93 92 82 77 76 79 78 76 69 69 67 68 68 76 84 92 95 98 95 90 86
98 98 97 98 98 97 97 96 95 80 73 75 78 80 67 67 69 74 68 74 82 91 95 98 95 92 90
97 99 99 99 98 98 99 98 95 95 94 91 82 80 69 69 76 73 66 70 77 91 94 97 98 94 90
100 98 97 96 97 96 99 98 99 94 94 88 76 77 72 70 71 70 65 66 73 88 93 96 99 98 97
93 93 94 93 94 97 99 98 98 90 89 94 77 74 73 65 72 75 66 66 70 84 91 96 97 98 96
91 92 92 94 92 93 95 96 93 85 82 96 85 75 74 73 73 78 68 69 68 76 83 94 97 97 96
76 77 78 84 90 97 99 99 99 96 86 87 87 82 87 88 89 80 81 72 71 74 80 82 92 94 95
86 91 89 83 77 94 98 100 99 98 90 92 88 96 93 90 95 95 95 84 85 73 77 76 80 89 95
88 94 92 93 95 92 95 100 100 100 84 92 95 99 98 97 97 98 98 95 96 94 85 74 77 85 96
90 93 97 97 98 99 98 98 99 100 93 93 96 96 100 98 96 97 99 99 99 99 98 87 82 76 78
92 96 97 98 99 98 95 94 97 98 99 99 97 100 99 96 96 98 97 98 99 99 99 98 98 96 96
94 96 98 99 100 99 99 97 99 100 97 98 97 96 99 97 100 98 99 91 99 99 99 99 95 94 95
92 98 98 98 99 99 100 97 98 99 99 98 97 98 99 97 99 99 98 98 99 99 98 100 99 96 95
91 92 97 98 99 99 99 100 99 100 100 99 100 95 93 90 90 98 99 98 99 99 99 98 97 88 92
93 94 97 98 98 98 97 97 98 100 99 100 99 96 94 90 92 82 96 99 99 100 99 99 98 90 78

GFSFLT2_sfc_rhum_126.txt.gz
RH
100 99 98 96 94 94 93 93 93 86 83 81 84 79 73 71 72 70 67 69 76 85 91 94 96 92 86
100 100 98 95 96 95 92 82 91 83 82 82 82 75 71 72 71 70 68 68 77 87 93 96 94 91 85
100 98 98 98 97 95 93 93 83 79 77 78 80 78 73 70 69 72 70 67 76 88 93 96 95 89 85
98 99 98 99 97 96 97 96 95 83 77 75 78 79 74 67 69 73 69 66 75 89 92 97 96 91 91
98 99 99 100 98 98 99 98 96 96 94 92 88 85 78 68 76 73 67 66 74 88 93 98 96 93 88
100 99 97 95 98 98 98 99 98 93 94 93 82 87 80 75 69 74 67 67 72 86 93 98 98 96 94
94 94 94 94 96 98 98 98 97 92 89 95 87 83 82 68 70 74 67 69 72 83 92 97 98 98 96
89 91 89 94 90 92 95 96 96 90 82 97 92 86 81 77 72 76 77 71 74 80 88 95 97 97 97
86 85 85 86 91 96 99 99 99 97 87 90 88 88 89 87 87 80 85 77 74 77 78 90 94 96 94
94 90 87 87 87 93 97 100 99 99 91 93 89 90 96 89 93 95 95 85 86 82 76 78 89 96 98
86 92 91 96 98 97 96 99 100 100 86 92 97 96 98 97 96 98 98 96 96 94 90 76 80 89 98
88 94 95 96 98 98 99 99 99 100 94 97 96 93 98 95 94 96 98 99 99 98 98 89 84 76 82
88 94 96 95 99 99 98 97 98 98 99 98 96 97 97 95 95 98 97 97 99 99 99 98 98 96 96
89 95 98 98 100 98 100 99 100 100 96 99 99 98 99 97 100 98 99 91 99 100 99 99 95 93 94
94 96 98 98 98 99 99 97 100 100 100 96 93 93 99 99 99 99 99 98 99 99 98 99 97 94 93
88 91 96 98 98 99 99 98 100 100 99 98 100 97 92 90 90 98 99 98 99 100 99 97 93 86 89
91 92 93 96 98 98 97 98 98 100 100 99 100 96 94 89 92 84 96 98 99 99 99 99 98 89 78